Location: Newark
(44.3681°N, 100.3364°W)
Time: 22:28:43
(UTC+00:00)

Altair - All Passes

Search period start: 17 February 2020 00:00
Search period end: 27 February 2020 00:00
Orbit: 1502 x 1682 km, 47.2° (Epoch: 17 February)

Date Brightness Start Highest point End Pass type
(mag) Time Alt. Az. Time Alt. Az. Time Alt. Az.
17 Feb - 06:13:03 10° SE 06:15:52 12° ESE 06:18:43 10° ESE night (unlit)
17 Feb - 08:09:45 10° SSW 08:18:33 46° SE 08:27:43 10° ENE visible
17 Feb - 10:13:10 10° WSW 10:22:50 89° NNW 10:32:55 10° ENE visible
17 Feb - 12:18:20 10° W 12:28:12 77° N 12:38:23 10° E visible
17 Feb - 14:23:22 10° WNW 14:33:18 73° SSW 14:43:24 10° SE daylight
17 Feb - 16:28:54 10° WNW 16:37:04 29° SW 16:45:17 10° S daylight
18 Feb - 07:44:50 10° SSW 07:53:28 42° SE 08:02:26 10° ENE visible
18 Feb - 09:48:00 10° WSW 09:57:38 89° SSE 10:07:40 10° ENE visible
18 Feb - 11:53:08 10° W 12:02:57 76° N 12:13:07 10° E visible
18 Feb - 13:58:10 10° WNW 14:08:07 76° SSW 14:18:16 10° SE daylight
18 Feb - 16:03:33 10° WNW 16:11:59 32° SW 16:20:29 10° S daylight
19 Feb - 07:19:56 10° SSW 07:28:23 39° SE 07:37:09 10° ENE visible
19 Feb - 09:22:51 10° WSW 09:32:26 86° SSE 09:42:26 10° ENE visible
19 Feb - 11:27:55 10° W 11:37:42 76° N 11:47:50 10° E visible
19 Feb - 13:32:58 10° WNW 13:42:55 80° SSW 13:53:04 10° ESE daylight
19 Feb - 15:38:15 10° WNW 15:46:54 34° SW 15:55:39 10° SSE daylight
20 Feb - 06:55:05 10° SSW 07:03:19 36° SE 07:11:51 10° ENE visible
20 Feb - 08:57:43 10° WSW 09:07:14 83° SSE 09:17:11 10° ENE visible
20 Feb - 11:02:43 10° W 11:12:27 76° N 11:22:33 10° E visible
20 Feb - 13:07:47 10° WNW 13:17:43 83° SSW 13:27:53 10° ESE daylight
20 Feb - 15:12:57 10° WNW 15:21:47 37° SW 15:30:46 10° SSE daylight
21 Feb - 06:30:16 10° SSW 06:38:17 33° SE 06:46:32 10° ENE visible
21 Feb - 08:32:36 10° WSW 08:42:04 80° SSE 08:51:57 10° ENE visible
21 Feb - 10:37:30 10° W 10:47:12 76° N 10:57:17 10° E visible
21 Feb - 12:42:36 10° WNW 12:52:30 86° SSW 13:02:40 10° ESE visible
21 Feb - 14:47:41 10° WNW 14:56:42 40° SW 15:05:50 10° SSE daylight
22 Feb - 06:05:29 10° S 06:13:13 30° SE 06:21:11 10° ENE visible
22 Feb - 08:07:29 10° SW 08:16:54 76° SSE 08:26:43 10° ENE visible
22 Feb - 10:12:18 10° W 10:21:58 76° N 10:32:01 10° E visible
22 Feb - 12:17:25 10° WNW 12:27:17 88° SSW 12:37:27 10° ESE visible
22 Feb - 14:22:26 10° WNW 14:31:35 43° SW 14:40:53 10° SSE daylight
22 Feb - 16:32:14 10° WSW 16:34:23 11° WSW 16:36:33 10° SW daylight
23 Feb - 05:40:45 10° S 05:48:11 28° SE 05:55:49 10° ENE night (unlit)
23 Feb - 07:42:24 10° SW 07:51:44 73° SSE 08:01:29 10° ENE visible
23 Feb - 09:47:06 10° W 09:56:43 76° N 10:06:45 10° E visible
23 Feb - 11:52:14 10° WNW 12:02:04 89° NNE 12:12:14 10° ESE visible
23 Feb - 13:57:12 10° WNW 14:06:28 46° SW 14:15:55 10° SSE daylight
23 Feb - 16:05:40 10° W 16:09:23 13° WSW 16:13:07 10° SW daylight
24 Feb - 05:16:03 10° S 05:23:09 25° SE 05:30:26 10° E night (unlit)
24 Feb - 07:17:19 10° SW 07:26:36 69° SSE 07:36:15 10° ENE visible
24 Feb - 09:21:54 10° W 09:31:29 77° N 09:41:28 10° E visible
24 Feb - 11:27:03 10° WNW 11:36:51 87° NNE 11:46:59 10° ESE visible
24 Feb - 13:31:58 10° WNW 13:41:20 49° SW 13:50:54 10° SSE daylight
24 Feb - 15:39:38 10° W 15:44:22 14° WSW 15:49:07 10° SSW daylight
25 Feb - 04:51:25 10° S 04:58:08 23° SE 05:05:00 10° E night (unlit)
25 Feb - 06:52:16 10° SW 07:01:28 66° SSE 07:11:02 10° ENE visible
25 Feb - 08:56:43 10° W 09:06:15 78° N 09:16:12 10° ENE visible
25 Feb - 11:01:52 10° WNW 11:11:38 85° NNE 11:21:45 10° ESE visible
25 Feb - 13:06:46 10° WNW 13:16:12 53° SW 13:25:52 10° SE daylight
25 Feb - 15:13:51 10° W 15:19:20 16° SW 15:24:52 10° SSW daylight
26 Feb - 04:26:51 10° S 04:33:08 21° SE 04:39:31 10° E night (unlit)
26 Feb - 06:27:13 10° SW 06:36:20 62° SE 06:45:48 10° ENE visible
26 Feb - 08:31:31 10° W 08:41:02 79° N 08:50:58 10° ENE visible
26 Feb - 10:36:41 10° WNW 10:46:25 83° NNE 10:56:29 10° ESE visible
26 Feb - 12:41:34 10° WNW 12:51:04 56° SW 13:00:49 10° SE visible
26 Feb - 14:48:13 10° W 14:54:18 18° SW 15:00:28 10° SSW daylight
